Location: North Bay Shore
(40.7362°N, 73.2626°W)
Time: 04:37:36
(UTC+00:00)

Lacrosse 5 - Pass Details

Date: 29 October 2020
Orbit: 716 x 723 km, 57.0° (Epoch: 06 November)

Event Time Altitude Azimuth Distance (km) Brightness Sun altitude
Rises 23:09:54 0° 314° (NW) 3,123 5.8 -15.2°
Reaches altitude 10° 23:13:37 10° 341° (NNW) 2,203 4.6 -15.9°
Maximum altitude 23:16:02 13° 10° (N) 1,982 4.0 -16.4°
Enters shadow 23:17:47 12° 31° (NNE) 2,100 3.9 -16.7°
